Weather in Zelenoborskoye

Russia / Kurgan Oblast     56°20′35″N   63°56′39″E
temp.,
°C
wind,
m/s
gust,
m/s
humid.,
%
clouds,
%
prec.,
mm/h
press.,
hPa
HPBL,
m
21 january, fri
fri2123:00−12s41091100 0.0 1023187
02:00−14ssw4992100 0.0 1024155
05:00−17ssw389321 0.0 1024108
08:00−23ssw23995 0.0 102432
11:00−17sw35955 0.0 102587
14:00−12sw35925 0.0 1025150
17:00−16ssw349650 0.0 102640
20:00−16sw3792100 0.0 102687
22 january, sat
sat2223:00−17sw359396 0.0 102759
02:00−17wsw3692100 0.0 102873
05:00−19sw2395100 0.0 102937
08:00−20sw339397 0.0 103030
11:00−16sw358813 0.0 103181
14:00−11sw248798 0.0 1031112
17:00−15ssw229486 0.0 103215
20:00−19sw229895 0.0 103412
23 january, sun
sun2323:00−21sw229635 0.0 103512
02:00−23sw229664 0.0 103515
05:00−24sw22967 0.0 103613
08:00−25sw22979 0.0 103710
11:00−18ssw239078 0.0 103865
14:00−13sw248492 0.0 1038126
17:00−16ssw229255 0.0 103915
20:00−20sw229599 0.0 104017
24 january, mon
mon2423:00−23sw229763 0.0 10419
02:00−22ssw329869 0.0 104226
05:00−21sw2297100 0.0 104225
08:00−18sw3693100 0.0 104278
11:00−15ssw3790100 0.0 1042121
14:00−12ssw3785100 0.0 1041181
17:00−13ssw3789100 0.0 1040122
20:00−12ssw3887100 0.0 1039167
25 january, tue
tue2523:00−11ssw3789100 0.0 1037158
02:00−13sw3593100 0.0 103661
05:00−11wsw369576 0.0 103493
08:00−13w369863 0.1 103370
11:00−12w379541 0.1 1033146
14:00−10w479318 0.0 1031220
17:00−12w3895100 0.0 1031128
20:00−14w359762 0.0 103063